owner,sensor,date,latitude,longitude,vertical_datum,wind_speed,wind_to_direction,wind_speed_of_gust,qcFlag 
TCOON,ioos:station:TCOON:005:1,2015-10-01T00:00:00Z,27.6346,-97.2370,0.0,4.8,109.0,5.3,'11111222,11111222,11111222' 
TCOON,ioos:station:TCOON:005:1,2015-10-01T00:06:00Z,27.6346,-97.2370,0.0,4.4,107.0,5.2,'11111222,11111222,11111222' 
TCOON,ioos:station:TCOON:005:1,2015-10-01T00:12:00Z,27.6346,-97.2370,0.0,4.4,107.0,5.2,'1111122,1111122,1111122' 
TCOON,ioos:station:TCOON:005:1,2015-10-01T00:18:00Z,27.6346,-97.2370,0.0,4.3,113.0,5.0,'11111222,11111222,11111222' 
TCOON,ioos:station:TCOON:005:1,2015-10-01T00:24:00Z,27.6346,-97.2370,0.0,3.6,112.0,4.6,'11111222,11111222,11111222' 
TCOON,ioos:station:TCOON:005:1,2015-10-01T00:30:00Z,27.6346,-97.2370,0.0,3.9,113.0,4.5,'11111222,11111222,11111222' 
TCOON,ioos:station:TCOON:005:1,2015-10-01T00:36:00Z,27.6346,-97.2370,0.0,3.9,112.0,4.6,'11111222,11111222,11111222' 
TCOON,ioos:station:TCOON:005:1,2015-10-01T00:42:00Z,27.6346,-97.2370,0.0,3.7,112.0,4.6,'11111222,11111222,11111222' 
TCOON,ioos:station:TCOON:005:1,2015-10-01T00:48:00Z,27.6346,-97.2370,0.0,3.7,112.0,4.2,'11111222,11111222,11111222' 
TCOON,ioos:station:TCOON:005:1,2015-10-01T00:54:00Z,27.6346,-97.2370,0.0,3.1,116.0,4.3,'11111222,11111222,11111222' 
TCOON,ioos:station:TCOON:005:1,2015-10-01T01:00:00Z,27.6346,-97.2370,0.0,3.3,116.0,3.8,'11111222,11111222,11111222' 
TCOON,ioos:station:TCOON:005:1,2015-10-01T01:06:00Z,27.6346,-97.2370,0.0,3.1,115.0,4.0,'11111222,11111222,11111222' 
TCOON,ioos:station:TCOON:005:1,2015-10-01T01:12:00Z,27.6346,-97.2370,0.0,3.1,115.0,4.0,'1111122,1111122,1111122' 
TCOON,ioos:station:TCOON:005:1,2015-10-01T01:18:00Z,27.6346,-97.2370,0.0,3.0,114.0,3.4,'11111222,11111222,11111222' 
TCOON,ioos:station:TCOON:005:1,2015-10-01T01:24:00Z,27.6346,-97.2370,0.0,2.9,112.0,3.4,'11111222,11111222,11111222' 
TCOON,ioos:station:TCOON:005:1,2015-10-01T01:30:00Z,27.6346,-97.2370,0.0,3.3,111.0,3.7,'11111222,11111222,11111222' 
TCOON,ioos:station:TCOON:005:1,2015-10-01T01:36:00Z,27.6346,-97.2370,0.0,3.3,114.0,3.6,'11111222,11111222,11111222' 
TCOON,ioos:station:TCOON:005:1,2015-10-01T01:42:00Z,27.6346,-97.2370,0.0,2.9,115.0,3.6,'11111222,11111222,11111222' 
TCOON,ioos:station:TCOON:005:1,2015-10-01T01:48:00Z,27.6346,-97.2370,0.0,3.1,117.0,3.6,'11111222,11111222,11111222' 
TCOON,ioos:station:TCOON:005:1,2015-10-01T01:54:00Z,27.6346,-97.2370,0.0,2.9,117.0,3.6,'11111222,11111222,11111222' 
TCOON,ioos:station:TCOON:005:1,2015-10-01T02:00:00Z,27.6346,-97.2370,0.0,3.0,118.0,3.7,'11111222,11111222,11111222' 
TCOON,ioos:station:TCOON:005:1,2015-10-01T02:06:00Z,27.6346,-97.2370,0.0,2.9,117.0,3.7,'11111222,11111222,11111222' 
TCOON,ioos:station:TCOON:005:1,2015-10-01T02:12:00Z,27.6346,-97.2370,0.0,2.9,117.0,3.7,'1111122,1111122,1111122' 
TCOON,ioos:station:TCOON:005:1,2015-10-01T02:18:00Z,27.6346,-97.2370,0.0,3.0,115.0,3.8,'11111222,11111222,11111222' 
TCOON,ioos:station:TCOON:005:1,2015-10-01T02:24:00Z,27.6346,-97.2370,0.0,2.2,124.0,3.7,'11111222,11111222,11111222' 
TCOON,ioos:station:TCOON:005:1,2015-10-01T02:30:00Z,27.6346,-97.2370,0.0,2.7,120.0,3.3,'11111222,11111222,11111222' 
TCOON,ioos:station:TCOON:005:1,2015-10-01T02:36:00Z,27.6346,-97.2370,0.0,2.2,126.0,3.0,'11111222,11111222,11111222' 
TCOON,ioos:station:TCOON:005:1,2015-10-01T02:42:00Z,27.6346,-97.2370,0.0,2.6,117.0,3.1,'11111222,11111222,11111222' 
TCOON,ioos:station:TCOON:005:1,2015-10-01T02:48:00Z,27.6346,-97.2370,0.0,2.3,123.0,3.1,'11111222,11111222,11111222' 
TCOON,ioos:station:TCOON:005:1,2015-10-01T02:54:00Z,27.6346,-97.2370,0.0,2.5,119.0,3.0,'11111222,11111222,11111222' 
TCOON,ioos:station:TCOON:005:1,2015-10-01T03:00:00Z,27.6346,-97.2370,0.0,2.5,114.0,3.1,'11111222,11111222,11111222' 
TCOON,ioos:station:TCOON:005:1,2015-10-01T03:06:00Z,27.6346,-97.2370,0.0,2.4,121.0,3.0,'11111222,11111222,11111222' 
TCOON,ioos:station:TCOON:005:1,2015-10-01T03:12:00Z,27.6346,-97.2370,0.0,2.4,119.0,3.3,'11111222,11111222,11111222' 
TCOON,ioos:station:TCOON:005:1,2015-10-01T03:18:00Z,27.6346,-97.2370,0.0,2.1,117.0,2.8,'11111222,11111222,11111222' 
TCOON,ioos:station:TCOON:005:1,2015-10-01T03:24:00Z,27.6346,-97.2370,0.0,2.1,117.0,2.8,'1111122,1111122,1111122' 
TCOON,ioos:station:TCOON:005:1,2015-10-01T03:30:00Z,27.6346,-97.2370,0.0,2.7,117.0,3.0,'11111222,11111222,11111222' 
TCOON,ioos:station:TCOON:005:1,2015-10-01T03:36:00Z,27.6346,-97.2370,0.0,2.2,123.0,2.6,'11111222,11111222,11111222' 
TCOON,ioos:station:TCOON:005:1,2015-10-01T03:42:00Z,27.6346,-97.2370,0.0,1.8,129.0,2.6,'11111222,11111222,11111222' 
TCOON,ioos:station:TCOON:005:1,2015-10-01T03:48:00Z,27.6346,-97.2370,0.0,1.8,125.0,2.5,'11111222,11111222,11111222' 
TCOON,ioos:station:TCOON:005:1,2015-10-01T03:54:00Z,27.6346,-97.2370,0.0,1.5,129.0,2.4,'11111222,11111222,11111222' 
TCOON,ioos:station:TCOON:005:1,2015-10-01T04:00:00Z,27.6346,-97.2370,0.0,1.8,124.0,2.1,'11111222,11111222,11111222' 
TCOON,ioos:station:TCOON:005:1,2015-10-01T04:06:00Z,27.6346,-97.2370,0.0,2.1,119.0,2.7,'11111222,11111222,11111222' 
TCOON,ioos:station:TCOON:005:1,2015-10-01T04:12:00Z,27.6346,-97.2370,0.0,2.1,119.0,2.7,'1111122,1111122,1111122' 
TCOON,ioos:station:TCOON:005:1,2015-10-01T04:18:00Z,27.6346,-97.2370,0.0,2.0,123.0,2.8,'11111222,11111222,11111222' 
TCOON,ioos:station:TCOON:005:1,2015-10-01T04:24:00Z,27.6346,-97.2370,0.0,2.0,120.0,2.8,'11111222,11111222,11111222' 
TCOON,ioos:station:TCOON:005:1,2015-10-01T04:30:00Z,27.6346,-97.2370,0.0,2.5,117.0,2.9,'11111222,11111222,11111222' 
TCOON,ioos:station:TCOON:005:1,2015-10-01T04:36:00Z,27.6346,-97.2370,0.0,1.9,127.0,2.8,'11111222,11111222,11111222' 
TCOON,ioos:station:TCOON:005:1,2015-10-01T04:42:00Z,27.6346,-97.2370,0.0,1.4,135.0,2.2,'11111222,11111222,11111222' 
TCOON,ioos:station:TCOON:005:1,2015-10-01T04:48:00Z,27.6346,-97.2370,0.0,1.6,130.0,1.9,'11111222,11111222,11111222' 
TCOON,ioos:station:TCOON:005:1,2015-10-01T04:54:00Z,27.6346,-97.2370,0.0,1.5,133.0,1.8,'11111222,11111222,11111222' 
TCOON,ioos:station:TCOON:005:1,2015-10-01T05:00:00Z,27.6346,-97.2370,0.0,1.0,133.0,1.8,'11111222,11111222,11111222' 
TCOON,ioos:station:TCOON:005:1,2015-10-01T05:06:00Z,27.6346,-97.2370,0.0,1.4,123.0,1.6,'11111222,11111222,11111222' 
TCOON,ioos:station:TCOON:005:1,2015-10-01T05:12:00Z,27.6346,-97.2370,0.0,1.4,127.0,1.9,'11111222,11111222,11111222' 
TCOON,ioos:station:TCOON:005:1,2015-10-01T05:18:00Z,27.6346,-97.2370,0.0,1.7,130.0,2.0,'11111222,11111222,11111222' 
TCOON,ioos:station:TCOON:005:1,2015-10-01T05:24:00Z,27.6346,-97.2370,0.0,1.4,127.0,1.8,'11111222,11111222,11111222' 
TCOON,ioos:station:TCOON:005:1,2015-10-01T05:30:00Z,27.6346,-97.2370,0.0,1.4,127.0,1.8,'1111122,1111122,1111122' 
TCOON,ioos:station:TCOON:005:1,2015-10-01T05:36:00Z,27.6346,-97.2370,0.0,1.2,131.0,1.5,'11111222,11111222,11111222' 
TCOON,ioos:station:TCOON:005:1,2015-10-01T05:42:00Z,27.6346,-97.2370,0.0,1.2,125.0,1.6,'11111222,11111222,11111222' 
TCOON,ioos:station:TCOON:005:1,2015-10-01T05:48:00Z,27.6346,-97.2370,0.0,1.0,117.0,1.5,'11111222,11111222,11111222' 
TCOON,ioos:station:TCOON:005:1,2015-10-01T05:54:00Z,27.6346,-97.2370,0.0,1.8,113.0,2.1,'11111222,11111222,11111222' 
TCOON,ioos:station:TCOON:005:1,2015-10-01T06:00:00Z,27.6346,-97.2370,0.0,1.5,117.0,2.0,'11111222,11111222,11111222' 
TCOON,ioos:station:TCOON:005:1,2015-10-01T06:06:00Z,27.6346,-97.2370,0.0,1.5,114.0,2.2,'11111222,11111222,11111222' 
TCOON,ioos:station:TCOON:005:1,2015-10-01T06:12:00Z,27.6346,-97.2370,0.0,1.7,114.0,2.0,'11111222,11111222,11111222' 
TCOON,ioos:station:TCOON:005:1,2015-10-01T06:18:00Z,27.6346,-97.2370,0.0,1.7,112.0,2.1,'11111222,11111222,11111222' 
TCOON,ioos:station:TCOON:005:1,2015-10-01T06:24:00Z,27.6346,-97.2370,0.0,1.7,112.0,2.1,'1111122,1111122,1111122' 
TCOON,ioos:station:TCOON:005:1,2015-10-01T06:30:00Z,27.6346,-97.2370,0.0,1.6,120.0,1.8,'11111222,11111222,11111222' 
TCOON,ioos:station:TCOON:005:1,2015-10-01T06:36:00Z,27.6346,-97.2370,0.0,1.6,122.0,1.9,'11111222,11111222,11111222' 
TCOON,ioos:station:TCOON:005:1,2015-10-01T06:42:00Z,27.6346,-97.2370,0.0,1.6,120.0,2.0,'11111222,11111222,11111222' 
TCOON,ioos:station:TCOON:005:1,2015-10-01T06:48:00Z,27.6346,-97.2370,0.0,1.3,121.0,1.9,'11111222,11111222,11111222' 
TCOON,ioos:station:TCOON:005:1,2015-10-01T06:54:00Z,27.6346,-97.2370,0.0,1.2,112.0,1.5,'11111222,11111222,11111222' 
TCOON,ioos:station:TCOON:005:1,2015-10-01T07:00:00Z,27.6346,-97.2370,0.0,1.0,115.0,1.4,'11111222,11111222,11111222' 
TCOON,ioos:station:TCOON:005:1,2015-10-01T07:06:00Z,27.6346,-97.2370,0.0,1.0,131.0,1.4,'11111222,11111222,11111222' 
TCOON,ioos:station:TCOON:005:1,2015-10-01T07:12:00Z,27.6346,-97.2370,0.0,1.1,118.0,1.3,'11111222,11111222,11111222' 
TCOON,ioos:station:TCOON:005:1,2015-10-01T07:18:00Z,27.6346,-97.2370,0.0,0.8,120.0,1.3,'11111222,11111222,11111222' 
TCOON,ioos:station:TCOON:005:1,2015-10-01T07:24:00Z,27.6346,-97.2370,0.0,0.9,137.0,1.1,'11111222,11111222,11111222' 
TCOON,ioos:station:TCOON:005:1,2015-10-01T07:30:00Z,27.6346,-97.2370,0.0,0.7,138.0,0.9,'11111222,11111222,11111222' 
TCOON,ioos:station:TCOON:005:1,2015-10-01T07:36:00Z,27.6346,-97.2370,0.0,0.7,147.0,0.9,'11111222,11111222,11111222' 
TCOON,ioos:station:TCOON:005:1,2015-10-01T07:42:00Z,27.6346,-97.2370,0.0,0.3,141.0,0.8,'11111222,11111222,11111222' 
TCOON,ioos:station:TCOON:005:1,2015-10-01T07:48:00Z,27.6346,-97.2370,0.0,0.0,140.0,0.4,'11111222,11111222,11111222' 
TCOON,ioos:station:TCOON:005:1,2015-10-01T07:54:00Z,27.6346,-97.2370,0.0,0.0,187.0,0.0,'11111222,11111222,11111222' 
TCOON,ioos:station:TCOON:005:1,2015-10-01T08:00:00Z,27.6346,-97.2370,0.0,0.1,219.0,0.3,'11111222,11111222,11111222' 
TCOON,ioos:station:TCOON:005:1,2015-10-01T08:06:00Z,27.6346,-97.2370,0.0,0.0,219.0,0.2,'11111222,11111222,11111222' 
TCOON,ioos:station:TCOON:005:1,2015-10-01T08:12:00Z,27.6346,-97.2370,0.0,0.4,227.0,0.5,'11111222,11111222,11111222' 
TCOON,ioos:station:TCOON:005:1,2015-10-01T08:18:00Z,27.6346,-97.2370,0.0,0.2,230.0,0.4,'11111222,11111222,11111222' 
TCOON,ioos:station:TCOON:005:1,2015-10-01T08:24:00Z,27.6346,-97.2370,0.0,0.2,230.0,0.4,'1111122,1111122,1111122' 
TCOON,ioos:station:TCOON:005:1,2015-10-01T08:30:00Z,27.6346,-97.2370,0.0,0.6,220.0,0.7,'11111222,11111222,11111222' 
TCOON,ioos:station:TCOON:005:1,2015-10-01T08:36:00Z,27.6346,-97.2370,0.0,0.7,226.0,0.9,'11111222,11111222,11111222' 
TCOON,ioos:station:TCOON:005:1,2015-10-01T08:42:00Z,27.6346,-97.2370,0.0,2.4,272.0,2.9,'11111222,11111222,11111222' 
TCOON,ioos:station:TCOON:005:1,2015-10-01T08:48:00Z,27.6346,-97.2370,0.0,2.3,262.0,2.6,'11111222,11111222,11111222' 
TCOON,ioos:station:TCOON:005:1,2015-10-01T08:54:00Z,27.6346,-97.2370,0.0,2.1,274.0,2.7,'11111222,11111222,11111222' 
TCOON,ioos:station:TCOON:005:1,2015-10-01T09:00:00Z,27.6346,-97.2370,0.0,1.2,281.0,2.2,'11111222,11111222,11111222' 
TCOON,ioos:station:TCOON:005:1,2015-10-01T09:06:00Z,27.6346,-97.2370,0.0,1.9,275.0,2.5,'11111222,11111222,11111222' 
TCOON,ioos:station:TCOON:005:1,2015-10-01T09:12:00Z,27.6346,-97.2370,0.0,1.7,282.0,2.8,'11111222,11111222,11111222' 
TCOON,ioos:station:TCOON:005:1,2015-10-01T09:18:00Z,27.6346,-97.2370,0.0,2.7,289.0,3.5,'11111222,11111222,11111222' 
TCOON,ioos:station:TCOON:005:1,2015-10-01T09:24:00Z,27.6346,-97.2370,0.0,2.7,289.0,3.5,'1111122,1111122,1111122' 
TCOON,ioos:station:TCOON:005:1,2015-10-01T09:30:00Z,27.6346,-97.2370,0.0,2.9,292.0,3.5,'11111222,11111222,11111222' 
TCOON,ioos:station:TCOON:005:1,2015-10-01T09:36:00Z,27.6346,-97.2370,0.0,2.1,290.0,3.6,'11111222,11111222,11111222' 
TCOON,ioos:station:TCOON:005:1,2015-10-01T09:42:00Z,27.6346,-97.2370,0.0,2.6,290.0,3.4,'11111222,11111222,11111222' 
TCOON,ioos:station:TCOON:005:1,2015-10-01T09:48:00Z,27.6346,-97.2370,0.0,2.7,290.0,3.5,'11111222,11111222,11111222' 
TCOON,ioos:station:TCOON:005:1,2015-10-01T09:54:00Z,27.6346,-97.2370,0.0,2.7,295.0,3.4,'11111222,11111222,11111222' 
TCOON,ioos:station:TCOON:005:1,2015-10-01T10:00:00Z,27.6346,-97.2370,0.0,3.0,291.0,3.5,'11111222,11111222,11111222' 
TCOON,ioos:station:TCOON:005:1,2015-10-01T10:06:00Z,27.6346,-97.2370,0.0,3.4,301.0,3.8,'11111222,11111222,11111222' 
TCOON,ioos:station:TCOON:005:1,2015-10-01T10:12:00Z,27.6346,-97.2370,0.0,3.2,294.0,3.8,'11111222,11111222,11111222' 
TCOON,ioos:station:TCOON:005:1,2015-10-01T10:18:00Z,27.6346,-97.2370,0.0,2.3,290.0,3.7,'11111222,11111222,11111222' 
TCOON,ioos:station:TCOON:005:1,2015-10-01T10:24:00Z,27.6346,-97.2370,0.0,2.3,290.0,3.7,'1111122,1111122,1111122' 
TCOON,ioos:station:TCOON:005:1,2015-10-01T10:30:00Z,27.6346,-97.2370,0.0,3.2,294.0,3.5,'11111222,11111222,11111222' 
TCOON,ioos:station:TCOON:005:1,2015-10-01T10:36:00Z,27.6346,-97.2370,0.0,2.8,293.0,3.6,'11111222,11111222,11111222' 
TCOON,ioos:station:TCOON:005:1,2015-10-01T10:42:00Z,27.6346,-97.2370,0.0,2.9,294.0,3.7,'11111222,11111222,11111222' 
TCOON,ioos:station:TCOON:005:1,2015-10-01T10:48:00Z,27.6346,-97.2370,0.0,3.3,295.0,3.7,'11111222,11111222,11111222' 
TCOON,ioos:station:TCOON:005:1,2015-10-01T10:54:00Z,27.6346,-97.2370,0.0,3.0,298.0,3.4,'11111222,11111222,11111222' 
TCOON,ioos:station:TCOON:005:1,2015-10-01T11:00:00Z,27.6346,-97.2370,0.0,2.9,306.0,3.3,'11111222,11111222,11111222' 
TCOON,ioos:station:TCOON:005:1,2015-10-01T11:06:00Z,27.6346,-97.2370,0.0,2.8,298.0,3.4,'11111222,11111222,11111222' 
TCOON,ioos:station:TCOON:005:1,2015-10-01T11:12:00Z,27.6346,-97.2370,0.0,2.8,298.0,3.4,'1111122,1111122,1111122' 
TCOON,ioos:station:TCOON:005:1,2015-10-01T11:18:00Z,27.6346,-97.2370,0.0,2.6,300.0,3.0,'11111222,11111222,11111222' 
TCOON,ioos:station:TCOON:005:1,2015-10-01T11:24:00Z,27.6346,-97.2370,0.0,2.1,304.0,2.7,'11111222,11111222,11111222' 
TCOON,ioos:station:TCOON:005:1,2015-10-01T11:30:00Z,27.6346,-97.2370,0.0,2.1,307.0,2.5,'11111222,11111222,11111222' 
TCOON,ioos:station:TCOON:005:1,2015-10-01T11:36:00Z,27.6346,-97.2370,0.0,2.4,310.0,2.9,'11111222,11111222,11111222' 
TCOON,ioos:station:TCOON:005:1,2015-10-01T11:42:00Z,27.6346,-97.2370,0.0,2.4,316.0,2.9,'11111222,11111222,11111222' 
TCOON,ioos:station:TCOON:005:1,2015-10-01T11:48:00Z,27.6346,-97.2370,0.0,2.4,309.0,2.6,'11111222,11111222,11111222' 
TCOON,ioos:station:TCOON:005:1,2015-10-01T11:54:00Z,27.6346,-97.2370,0.0,2.2,318.0,2.6,'11111222,11111222,11111222' 
TCOON,ioos:station:TCOON:005:1,2015-10-01T12:00:00Z,27.6346,-97.2370,0.0,2.0,312.0,2.8,'11111222,11111222,11111222' 
TCOON,ioos:station:TCOON:005:1,2015-10-01T12:06:00Z,27.6346,-97.2370,0.0,2.3,313.0,2.7,'11111222,11111222,11111222' 
TCOON,ioos:station:TCOON:005:1,2015-10-01T12:12:00Z,27.6346,-97.2370,0.0,2.7,299.0,3.1,'11111222,11111222,11111222' 
TCOON,ioos:station:TCOON:005:1,2015-10-01T12:18:00Z,27.6346,-97.2370,0.0,2.7,299.0,3.1,'1111122,1111122,1111122' 
TCOON,ioos:station:TCOON:005:1,2015-10-01T12:24:00Z,27.6346,-97.2370,0.0,2.8,298.0,3.3,'11111222,11111222,11111222' 
TCOON,ioos:station:TCOON:005:1,2015-10-01T12:30:00Z,27.6346,-97.2370,0.0,2.6,302.0,3.5,'11111222,11111222,11111222' 
TCOON,ioos:station:TCOON:005:1,2015-10-01T12:36:00Z,27.6346,-97.2370,0.0,2.7,301.0,3.4,'11111222,11111222,11111222' 
TCOON,ioos:station:TCOON:005:1,2015-10-01T12:42:00Z,27.6346,-97.2370,0.0,2.9,305.0,3.4,'11111222,11111222,11111222' 
TCOON,ioos:station:TCOON:005:1,2015-10-01T12:48:00Z,27.6346,-97.2370,0.0,2.8,297.0,3.5,'11111222,11111222,11111222' 
TCOON,ioos:station:TCOON:005:1,2015-10-01T12:54:00Z,27.6346,-97.2370,0.0,3.1,295.0,3.6,'11111222,11111222,11111222' 
TCOON,ioos:station:TCOON:005:1,2015-10-01T13:00:00Z,27.6346,-97.2370,0.0,2.5,288.0,3.4,'11111222,11111222,11111222' 
TCOON,ioos:station:TCOON:005:1,2015-10-01T13:06:00Z,27.6346,-97.2370,0.0,2.7,288.0,3.6,'11111222,11111222,11111222' 
TCOON,ioos:station:TCOON:005:1,2015-10-01T13:12:00Z,27.6346,-97.2370,0.0,2.9,297.0,3.6,'11111222,11111222,11111222' 
TCOON,ioos:station:TCOON:005:1,2015-10-01T13:18:00Z,27.6346,-97.2370,0.0,2.9,297.0,3.6,'1111122,1111122,1111122' 
TCOON,ioos:station:TCOON:005:1,2015-10-01T13:24:00Z,27.6346,-97.2370,0.0,3.5,300.0,4.1,'11111222,11111222,11111222' 
TCOON,ioos:station:TCOON:005:1,2015-10-01T13:30:00Z,27.6346,-97.2370,0.0,3.7,305.0,4.3,'11111222,11111222,11111222' 
TCOON,ioos:station:TCOON:005:1,2015-10-01T13:36:00Z,27.6346,-97.2370,0.0,4.1,313.0,4.5,'11111222,11111222,11111222' 
TCOON,ioos:station:TCOON:005:1,2015-10-01T13:42:00Z,27.6346,-97.2370,0.0,4.4,308.0,4.9,'11111222,11111222,11111222' 
TCOON,ioos:station:TCOON:005:1,2015-10-01T13:48:00Z,27.6346,-97.2370,0.0,4.4,312.0,5.0,'11111222,11111222,11111222' 
TCOON,ioos:station:TCOON:005:1,2015-10-01T13:54:00Z,27.6346,-97.2370,0.0,4.1,315.0,5.1,'11111222,11111222,11111222' 
TCOON,ioos:station:TCOON:005:1,2015-10-01T14:00:00Z,27.6346,-97.2370,0.0,3.9,316.0,4.6,'11111222,11111222,11111222' 
TCOON,ioos:station:TCOON:005:1,2015-10-01T14:06:00Z,27.6346,-97.2370,0.0,4.1,315.0,4.5,'11111222,11111222,11111222' 
TCOON,ioos:station:TCOON:005:1,2015-10-01T14:12:00Z,27.6346,-97.2370,0.0,3.9,324.0,4.5,'11111222,11111222,11111222' 
TCOON,ioos:station:TCOON:005:1,2015-10-01T14:18:00Z,27.6346,-97.2370,0.0,4.1,326.0,4.7,'11111222,11111222,11111222' 
TCOON,ioos:station:TCOON:005:1,2015-10-01T14:24:00Z,27.6346,-97.2370,0.0,4.4,329.0,4.7,'11111222,11111222,11111222' 
TCOON,ioos:station:TCOON:005:1,2015-10-01T14:30:00Z,27.6346,-97.2370,0.0,3.8,327.0,4.6,'11111222,11111222,11111222' 
TCOON,ioos:station:TCOON:005:1,2015-10-01T14:36:00Z,27.6346,-97.2370,0.0,4.4,326.0,4.9,'11111222,11111222,11111222' 
TCOON,ioos:station:TCOON:005:1,2015-10-01T14:42:00Z,27.6346,-97.2370,0.0,4.4,326.0,4.9,'1111122,1111122,1111122' 
TCOON,ioos:station:TCOON:005:1,2015-10-01T14:48:00Z,27.6346,-97.2370,0.0,4.4,329.0,5.2,'11111222,11111222,11111222' 
TCOON,ioos:station:TCOON:005:1,2015-10-01T14:54:00Z,27.6346,-97.2370,0.0,4.3,328.0,5.4,'11111222,11111222,11111222' 
TCOON,ioos:station:TCOON:005:1,2015-10-01T15:00:00Z,27.6346,-97.2370,0.0,4.4,327.0,4.9,'11111222,11111222,11111222' 
TCOON,ioos:station:TCOON:005:1,2015-10-01T15:06:00Z,27.6346,-97.2370,0.0,4.5,324.0,5.2,'11111222,11111222,11111222' 
TCOON,ioos:station:TCOON:005:1,2015-10-01T15:12:00Z,27.6346,-97.2370,0.0,4.9,330.0,5.4,'11111222,11111222,11111222' 
TCOON,ioos:station:TCOON:005:1,2015-10-01T15:18:00Z,27.6346,-97.2370,0.0,4.0,326.0,5.1,'11111222,11111222,11111222' 
TCOON,ioos:station:TCOON:005:1,2015-10-01T15:24:00Z,27.6346,-97.2370,0.0,4.0,326.0,5.1,'1111122,1111122,1111122' 
TCOON,ioos:station:TCOON:005:1,2015-10-01T15:30:00Z,27.6346,-97.2370,0.0,4.5,331.0,5.0,'11111222,11111222,11111222' 
TCOON,ioos:station:TCOON:005:1,2015-10-01T15:36:00Z,27.6346,-97.2370,0.0,4.5,353.0,5.3,'11111222,11111222,11111222' 
TCOON,ioos:station:TCOON:005:1,2015-10-01T15:42:00Z,27.6346,-97.2370,0.0,4.8,4.0,6.6,'11111222,11111222,11111222' 
TCOON,ioos:station:TCOON:005:1,2015-10-01T15:48:00Z,27.6346,-97.2370,0.0,4.5,350.0,5.8,'11111222,11111222,11111222' 
TCOON,ioos:station:TCOON:005:1,2015-10-01T15:54:00Z,27.6346,-97.2370,0.0,4.0,1.0,5.7,'11111222,11111222,11111222' 
TCOON,ioos:station:TCOON:005:1,2015-10-01T16:00:00Z,27.6346,-97.2370,0.0,3.9,359.0,4.9,'11111222,11111222,11111222' 
TCOON,ioos:station:TCOON:005:1,2015-10-01T16:06:00Z,27.6346,-97.2370,0.0,4.4,346.0,4.8,'11111222,11111222,11111222' 
TCOON,ioos:station:TCOON:005:1,2015-10-01T16:12:00Z,27.6346,-97.2370,0.0,4.1,343.0,4.5,'11111222,11111222,11111222' 
TCOON,ioos:station:TCOON:005:1,2015-10-01T16:18:00Z,27.6346,-97.2370,0.0,4.1,343.0,4.5,'1111122,1111122,1111122' 
TCOON,ioos:station:TCOON:005:1,2015-10-01T16:24:00Z,27.6346,-97.2370,0.0,3.1,351.0,4.3,'11111222,11111222,11111222' 
TCOON,ioos:station:TCOON:005:1,2015-10-01T16:30:00Z,27.6346,-97.2370,0.0,3.2,346.0,4.1,'11111222,11111222,11111222' 
TCOON,ioos:station:TCOON:005:1,2015-10-01T16:36:00Z,27.6346,-97.2370,0.0,3.0,3.0,3.9,'11111222,11111222,11111222' 
TCOON,ioos:station:TCOON:005:1,2015-10-01T16:42:00Z,27.6346,-97.2370,0.0,2.9,349.0,3.8,'11111222,11111222,11111222' 
TCOON,ioos:station:TCOON:005:1,2015-10-01T16:48:00Z,27.6346,-97.2370,0.0,3.0,346.0,4.0,'11111222,11111222,11111222' 
TCOON,ioos:station:TCOON:005:1,2015-10-01T16:54:00Z,27.6346,-97.2370,0.0,2.9,356.0,3.3,'11111222,11111222,11111222' 
TCOON,ioos:station:TCOON:005:1,2015-10-01T17:00:00Z,27.6346,-97.2370,0.0,2.7,344.0,3.7,'11111222,11111222,11111222' 
TCOON,ioos:station:TCOON:005:1,2015-10-01T17:06:00Z,27.6346,-97.2370,0.0,2.4,9.0,3.6,'11111222,11111222,11111222' 
TCOON,ioos:station:TCOON:005:1,2015-10-01T17:12:00Z,27.6346,-97.2370,0.0,3.1,359.0,3.7,'11111222,11111222,11111222' 
TCOON,ioos:station:TCOON:005:1,2015-10-01T17:18:00Z,27.6346,-97.2370,0.0,3.1,359.0,3.7,'1111122,1111122,1111122' 
TCOON,ioos:station:TCOON:005:1,2015-10-01T17:24:00Z,27.6346,-97.2370,0.0,2.7,356.0,3.7,'11111222,11111222,11111222' 
TCOON,ioos:station:TCOON:005:1,2015-10-01T17:30:00Z,27.6346,-97.2370,0.0,2.4,6.0,3.2,'11111222,11111222,11111222' 
TCOON,ioos:station:TCOON:005:1,2015-10-01T17:36:00Z,27.6346,-97.2370,0.0,2.2,5.0,2.9,'11111222,11111222,11111222' 
TCOON,ioos:station:TCOON:005:1,2015-10-01T17:42:00Z,27.6346,-97.2370,0.0,2.1,352.0,3.0,'11111222,11111222,11111222' 
TCOON,ioos:station:TCOON:005:1,2015-10-01T17:48:00Z,27.6346,-97.2370,0.0,2.0,349.0,2.9,'11111222,11111222,11111222' 
TCOON,ioos:station:TCOON:005:1,2015-10-01T17:54:00Z,27.6346,-97.2370,0.0,2.2,338.0,2.7,'11111222,11111222,11111222' 
TCOON,ioos:station:TCOON:005:1,2015-10-01T18:00:00Z,27.6346,-97.2370,0.0,1.9,331.0,2.4,'11111222,11111222,11111222' 
TCOON,ioos:station:TCOON:005:1,2015-10-01T18:06:00Z,27.6346,-97.2370,0.0,1.4,339.0,2.4,'11111222,11111222,11111222' 
TCOON,ioos:station:TCOON:005:1,2015-10-01T18:12:00Z,27.6346,-97.2370,0.0,1.6,63.0,2.5,'11111222,11111222,11111222' 
TCOON,ioos:station:TCOON:005:1,2015-10-01T18:18:00Z,27.6346,-97.2370,0.0,1.6,66.0,2.4,'11111222,11111222,11111222' 
TCOON,ioos:station:TCOON:005:1,2015-10-01T18:24:00Z,27.6346,-97.2370,0.0,1.6,66.0,2.4,'1111122,1111122,1111122' 
TCOON,ioos:station:TCOON:005:1,2015-10-01T18:30:00Z,27.6346,-97.2370,0.0,2.2,64.0,2.8,'11111222,11111222,11111222' 
TCOON,ioos:station:TCOON:005:1,2015-10-01T18:36:00Z,27.6346,-97.2370,0.0,2.2,67.0,2.9,'11111222,11111222,11111222' 
TCOON,ioos:station:TCOON:005:1,2015-10-01T18:42:00Z,27.6346,-97.2370,0.0,2.6,65.0,3.0,'11111222,11111222,11111222' 
TCOON,ioos:station:TCOON:005:1,2015-10-01T18:48:00Z,27.6346,-97.2370,0.0,2.4,66.0,2.9,'11111222,11111222,11111222' 
TCOON,ioos:station:TCOON:005:1,2015-10-01T18:54:00Z,27.6346,-97.2370,0.0,2.8,54.0,3.3,'11111222,11111222,11111222' 
TCOON,ioos:station:TCOON:005:1,2015-10-01T19:00:00Z,27.6346,-97.2370,0.0,2.7,67.0,3.4,'11111222,11111222,11111222' 
TCOON,ioos:station:TCOON:005:1,2015-10-01T19:06:00Z,27.6346,-97.2370,0.0,2.8,75.0,3.7,'11111222,11111222,11111222' 
TCOON,ioos:station:TCOON:005:1,2015-10-01T19:12:00Z,27.6346,-97.2370,0.0,1.8,72.0,3.6,'11111222,11111222,11111222' 
TCOON,ioos:station:TCOON:005:1,2015-10-01T19:18:00Z,27.6346,-97.2370,0.0,1.8,72.0,3.6,'1111122,1111122,1111122' 
TCOON,ioos:station:TCOON:005:1,2015-10-01T19:24:00Z,27.6346,-97.2370,0.0,3.9,81.0,4.7,'11111222,11111222,11111222' 
TCOON,ioos:station:TCOON:005:1,2015-10-01T19:30:00Z,27.6346,-97.2370,0.0,3.2,86.0,4.2,'11111222,11111222,11111222' 
TCOON,ioos:station:TCOON:005:1,2015-10-01T19:36:00Z,27.6346,-97.2370,0.0,2.5,92.0,3.6,'11111222,11111222,11111222' 
TCOON,ioos:station:TCOON:005:1,2015-10-01T19:42:00Z,27.6346,-97.2370,0.0,2.9,96.0,3.7,'11111222,11111222,11111222' 
TCOON,ioos:station:TCOON:005:1,2015-10-01T19:48:00Z,27.6346,-97.2370,0.0,3.0,104.0,3.7,'11111222,11111222,11111222' 
TCOON,ioos:station:TCOON:005:1,2015-10-01T19:54:00Z,27.6346,-97.2370,0.0,3.7,81.0,4.4,'11111222,11111222,11111222' 
TCOON,ioos:station:TCOON:005:1,2015-10-01T20:00:00Z,27.6346,-97.2370,0.0,4.0,86.0,4.8,'11111222,11111222,11111222' 
TCOON,ioos:station:TCOON:005:1,2015-10-01T20:06:00Z,27.6346,-97.2370,0.0,3.9,83.0,4.5,'11111222,11111222,11111222' 
TCOON,ioos:station:TCOON:005:1,2015-10-01T20:12:00Z,27.6346,-97.2370,0.0,3.7,96.0,4.7,'11111222,11111222,11111222' 
TCOON,ioos:station:TCOON:005:1,2015-10-01T20:18:00Z,27.6346,-97.2370,0.0,4.1,92.0,4.9,'11111222,11111222,11111222' 
TCOON,ioos:station:TCOON:005:1,2015-10-01T20:24:00Z,27.6346,-97.2370,0.0,4.1,92.0,4.9,'1111122,1111122,1111122' 